Simultaneous Nadir Overpasses (SNOs) Predictions

Prediction of SNOs between GOES-16 and FY3D Satellite Orbit:

Table of predicted SNOs for the next 14.0 days since TLE Epoch: 3/9/2024
Index Date Time (GOES-16) GOES-16 Lat,Lon FY3D Lat,Lon Distance(km) Time Diff (sec)
1 03/09/2024 07:22:53 -0.04, -75.20 -0.08, -75.10 11.44 80
2 03/11/2024 19:26:41 0.04, -75.22 -0.11, -75.98 86.68 80
3 03/12/2024 19:10:52 0.04, -75.23 0.91, -71.50 425.62 80
4 03/14/2024 07:33:02 -0.04, -75.24 0.32, -76.82 180.42 80
5 03/15/2024 07:11:53 -0.04, -75.25 -0.71, -72.34 331.91 80
6 03/16/2024 19:34:10 0.03, -75.27 -0.55, -77.69 277.14 80
7 03/17/2024 19:18:21 0.03, -75.28 0.48, -73.21 235.76 80
8 03/19/2024 07:40:31 -0.02, -75.30 0.74, -78.53 368.88 80
9 03/20/2024 07:19:21 -0.02, -75.32 -0.30, -74.05 144.35 80
10 03/21/2024 19:41:40 0.01, -75.35 -0.89, -79.42 463.45 80
11 03/22/2024 19:25:49 0.01, -75.37 0.09, -74.92 50.49 80
